{"data":{"norad_id":68359,"intl_designator":"2026-060K","name":"CENTISPACE-2 S10","alt_names":[],"object_type":"PAYLOAD","status":"ACTIVE","operator":null,"country":"PRC","launch_date":"2026-03-22","launch_site_code":"YSLA","launch_vehicle":null,"mission":null,"orbit_class":"UNKNOWN","rcs_meters":null,"size_class":null,"mass_kg":null,"dimensions":null,"purposes":[],"wikipedia_slug":null,"has_3d_model":false,"image_url":null,"decayed_at":null,"tle_current":{"epoch":"2026-05-25T05:25:11.965152Z","epoch_age_seconds":58609,"freshness":"FRESH","line1":"1 68359U 26060K   26145.22583293  .00001277  00000+0  22710-3 0  9998","line2":"2 68359  54.9766 129.5396 0014081  97.9309 262.3289 14.73360938  9382","mean_motion":14.73360938,"eccentricity":0.0014081,"inclination_deg":54.9766,"raan_deg":129.5396,"arg_perigee_deg":97.9309,"mean_anomaly_deg":262.3289,"bstar":0.0002271,"rev_number":938,"period_min":97.735725365077,"perigee_km":640.46225443498,"apogee_km":660.25590509482,"semimajor_km":7028.4960797649,"source":"CELESTRAK","updated_at":"2026-05-25T13:38:07.762952Z"}}}